Location: Serin Observatory
(40.5200°N, 74.4500°W)
Time: 18:23:22
(UTC+00:00)

SL-8 R/B - Visible Passes

Search period start: 23 September 2017 00:00
Search period end: 03 October 2017 00:00
Orbit: 657 x 668 km, 48.4° (Epoch: 22 September)

Date Brightness Start Highest point End Pass type
(mag) Time Alt. Az. Time Alt. Az. Time Alt. Az.
23 Sep 5.1 08:01:23 34° E 08:01:23 34° E 08:04:31 10° ENE visible
23 Sep 4.1 09:39:22 20° W 09:42:28 50° NNW 09:47:10 10° NE visible
24 Sep 3.7 08:31:12 77° NE 08:31:12 77° NE 08:35:42 10° ENE visible
24 Sep 4.7 10:09:26 10° WNW 10:13:52 35° N 10:18:17 10° NE visible
25 Sep 6.3 07:23:00 17° ENE 07:23:00 17° ENE 07:24:07 10° ENE visible
25 Sep 4.2 09:00:59 40° WNW 09:02:04 48° NNW 09:06:44 10° NE visible
26 Sep 5.4 07:52:45 31° NE 07:52:45 31° NE 07:55:18 10° ENE visible
26 Sep 4.8 09:30:44 19° WNW 09:33:28 34° N 09:37:53 10° NE visible
27 Sep 4.6 08:22:28 42° N 08:22:28 42° N 08:26:19 10° NE visible
27 Sep 5.0 10:00:40 10° WNW 10:04:59 31° N 10:09:16 10° ENE visible
28 Sep 6.6 07:14:11 14° ENE 07:14:11 14° ENE 07:14:52 10° ENE visible
28 Sep 4.8 08:52:10 31° NNW 08:53:05 34° N 08:57:28 10° ENE visible
29 Sep 5.9 07:43:54 23° NE 07:43:54 23° NE 07:45:54 10° NE visible
29 Sep 5.0 09:21:53 19° NW 09:24:35 31° N 09:28:54 10° ENE visible
30 Sep 5.2 08:13:37 31° NNE 08:13:37 31° NNE 08:17:04 10° ENE visible
30 Sep 4.9 09:51:37 10° NW 09:56:05 36° NNE 10:00:32 10° E visible
01 Oct 6.9 07:05:23 10° NE 07:05:23 10° NE 07:05:29 10° NE visible
01 Oct 5.0 08:43:22 30° NNW 08:44:12 31° N 08:48:30 10° ENE visible
01 Oct 4.3 10:22:43 10° NW 10:27:27 54° NNE 10:32:09 10° E visible
02 Oct 6.2 07:35:09 18° NE 07:35:09 18° NE 07:36:39 10° ENE visible
02 Oct 4.8 09:13:09 22° NW 09:15:41 37° NNE 09:20:10 10° E visible
